Location: Plainartige
(45.6866°N, 1.7993°E)
Time: 08:19:32
(UTC+00:00)

CUBESAT XI-V - Visible Passes

Search period start: 25 June 2022 00:00
Search period end: 05 July 2022 00:00
Orbit: 666 x 692 km, 98.1° (Epoch: 24 June)

Date Brightness Start Highest point End Pass type
(mag) Time Alt. Az. Time Alt. Az. Time Alt. Az.
25 Jun ? 01:00:33 18° SE 01:03:40 44° ENE 01:08:04 10° N visible
25 Jun ? 02:38:56 16° SW 02:41:09 21° W 02:44:42 10° NW visible
26 Jun ? 00:00:23 10° E 00:02:29 13° ENE 00:04:36 10° NNE visible
26 Jun ? 01:36:30 26° S 01:39:06 84° WSW 01:43:45 10° NNW visible
27 Jun ? 00:34:03 11° ESE 00:37:37 26° ENE 00:41:24 10° N visible
27 Jun ? 02:12:26 23° SSW 02:14:44 37° W 02:19:02 10° NNW visible
28 Jun ? 01:10:00 21° SE 01:12:55 54° ENE 01:17:24 10° N visible
28 Jun ? 02:48:23 13° WSW 02:50:31 18° W 02:53:36 10° NW visible
29 Jun ? 00:08:56 10° E 00:11:39 16° ENE 00:14:20 10° NNE visible
29 Jun ? 01:45:56 27° S 01:48:23 69° WSW 01:52:59 10° NNW visible
30 Jun ? 00:43:29 14° ESE 00:46:48 31° ENE 00:50:50 10° N visible
30 Jun ? 02:21:54 21° SW 02:24:02 31° W 02:28:07 10° NNW visible
01 Jul ? 01:19:26 24° SSE 01:22:09 67° ENE 01:26:43 10° N visible
01 Jul ? 02:57:51 11° WSW 02:59:54 14° W 03:02:21 10° WNW visible
02 Jul ? 00:17:38 10° ESE 00:20:47 19° ENE 00:23:56 10° NNE visible
02 Jul ? 01:55:24 27° SSW 01:57:40 55° W 02:02:12 10° NNW visible
03 Jul ? 00:52:57 17° SE 00:56:00 37° ENE 01:00:13 10° N visible
03 Jul ? 02:31:21 19° SW 02:33:22 25° W 02:37:10 10° NW visible
03 Jul ? 23:53:36 10° ENE 23:54:52 11° ENE 23:56:08 10° NE visible
04 Jul ? 01:28:54 27° SSE 01:31:23 82° ENE 01:36:00 10° NNW visible
04 Jul ? 03:07:47 10° WSW 03:09:15 11° W 03:10:43 10° WNW visible
